Weather History for Ohio State University, OH

Change the Weather History Date:

Wednesday, May 15, 2013

  Actual Average Record
Temperature  
Mean Temperature 75 °F -  
Max Temperature 87 °F 70 °F 87 °F (1998)
Min Temperature 64 °F 49 °F 39 °F (2000)
Cooling Degree Days 10    
Growing Degree Days 25 (Base 50)    
Moisture  
Dew Point 57 °F    
Average Humidity 53    
Maximum Humidity 75    
Minimum Humidity 36    
Precipitation  
Precipitation 0.00 in - - ()
Sea Level Pressure  
Sea Level Pressure 29.79 in    
Wind  
Wind Speed 11 mph (SW)    
Max Wind Speed 24 mph    
Max Gust Speed 36 mph    
Visibility 10 miles    
Events Rain    
Averages and records for this station are not official NWS values.
T = Trace of Precipitation, MM = Missing Value Source: NWS Daily Summary

Daily Weather History Graph

Daily Weather History Graph

Search for Another Location

Airport:

Trip Planner

Search our weather history database for the weather conditions in past years. The results will help you decide how hot, cold, wet, or windy it might be!

Date:

Astronomy

May. 15, 2013 Rise Set
Actual Time 6:16 AM EDT 8:41 PM EDT
Civil Twilight 5:45 AM EDT 9:12 PM EDT
Nautical Twilight 5:07 AM EDT 9:50 PM EDT
Astronomical Twilight 4:25 AM EDT 10:32 PM EDT
Moon 10:51 AM EDT (5/15) 12:26 AM EDT (5/15)
Length of Visible Light 15h 26m
Length of Day
14h 24m
Waxing Crescent, 26% of the Moon is Illuminated
May 15
Waxing Crescent
May 18
First Quarter
May 25
Full
May 31
Last Quarter
Jun 8
New

Hourly Weather History & Observations

Time (EDT) Temp. Heat Index Dew Point Humidity Pressure Visibility Wind Dir Wind Speed Gust Speed Precip Events Conditions
12:53 AM 66.0 °F - 55.9 °F 70% 29.82 in 10.0 mi South 5.8 mph - N/A   Clear
1:53 AM 66.0 °F - 55.9 °F 70% 29.81 in 10.0 mi SSW 6.9 mph - N/A   Clear
2:53 AM 64.9 °F - 57.0 °F 75% 29.80 in 10.0 mi SSW 6.9 mph - N/A   Clear
3:53 AM 66.9 °F - 57.0 °F 70% 29.79 in 10.0 mi SSW 6.9 mph - N/A   Clear
4:53 AM 66.0 °F - 57.0 °F 73% 29.78 in 10.0 mi SSW 10.4 mph - N/A   Clear
5:53 AM 66.0 °F - 57.0 °F 73% 29.78 in 10.0 mi SSW 10.4 mph - N/A   Clear
6:53 AM 66.0 °F - 57.0 °F 73% 29.79 in 10.0 mi SSW 8.1 mph - N/A   Clear
7:53 AM 70.0 °F - 57.0 °F 63% 29.80 in 10.0 mi SW 10.4 mph - N/A   Clear
8:53 AM 73.9 °F - 57.0 °F 55% 29.81 in 10.0 mi WSW 15.0 mph 21.9 mph N/A   Clear
9:53 AM 78.1 °F - 57.0 °F 48% 29.81 in 10.0 mi West 15.0 mph 20.7 mph N/A   Clear
10:53 AM 80.1 °F 80.2 °F 55.9 °F 43% 29.81 in 10.0 mi West 20.7 mph 32.2 mph N/A   Clear
11:53 AM 82.0 °F 82.0 °F 57.9 °F 44% 29.81 in 10.0 mi WSW 16.1 mph 25.3 mph N/A   Clear
12:53 PM 82.9 °F 82.4 °F 57.0 °F 41% 29.80 in 10.0 mi WSW 23.0 mph 29.9 mph N/A   Clear
1:53 PM 84.9 °F 84.2 °F 57.9 °F 40% 29.80 in 10.0 mi WSW 17.3 mph 29.9 mph N/A   Clear
2:53 PM 86.0 °F 84.7 °F 55.9 °F 36% 29.77 in 10.0 mi SW 24.2 mph 35.7 mph N/A   Clear
3:53 PM 86.0 °F 84.9 °F 57.0 °F 37% 29.77 in 10.0 mi WSW 15.0 mph 24.2 mph N/A   Clear
4:53 PM 84.0 °F 83.5 °F 57.9 °F 41% 29.76 in 10.0 mi West 12.7 mph 23.0 mph N/A   Clear
5:53 PM 84.0 °F 83.5 °F 57.9 °F 41% 29.76 in 10.0 mi WSW 17.3 mph 24.2 mph N/A   Scattered Clouds
6:53 PM 82.9 °F 82.4 °F 57.0 °F 41% 29.77 in 10.0 mi SW 17.3 mph 24.2 mph N/A   Scattered Clouds
7:53 PM 82.0 °F 81.7 °F 57.0 °F 42% 29.78 in 10.0 mi WSW 10.4 mph - N/A   Mostly Cloudy
8:53 PM 80.1 °F 80.4 °F 57.0 °F 45% 29.79 in 10.0 mi WSW 11.5 mph - N/A   Scattered Clouds
9:53 PM 78.1 °F - 57.0 °F 48% 29.81 in 10.0 mi WSW 9.2 mph - N/A   Overcast
10:53 PM 77.0 °F - 57.0 °F 50% 29.81 in 10.0 mi SW 10.4 mph - N/A   Mostly Cloudy
11:53 PM 75.0 °F - 57.0 °F 53% 29.79 in 10.0 mi SW 9.2 mph - 0.00 in Rain Light Rain